Location: Olda
(45.8833°N, 9.5500°E)
Time: 15:15:11
(UTC+00:00)

Cosmos 864 Rocket - Pass Details

Date: 03 March 2021
Orbit: 954 x 990 km, 82.9° (Epoch: 11 April)

Event Time Altitude Azimuth Distance (km) Brightness Sun altitude
Rises 19:04:14 0° 179° (S) 3,621 7.4 -20.4°
Reaches altitude 10° 19:06:43 10° 177° (S) 2,683 6.6 -20.8°
Maximum altitude 19:12:49 72° 95° (E) 1,016 4.3 -21.8°
Drops below altitude 10° 19:19:01 10° 12° (NNE) 2,723 6.9 -22.9°
Sets 19:21:33 0° 11° (N) 3,680 7.6 -23.3°
